Location: Brantley
(31.5822°N, 86.2569°W)
Time: 00:15:54
(UTC+00:00)

Courier 1B Rocket - Pass Details

Date: 22 February 2026
Orbit: 920 x 1201 km, 28.2° (Epoch: 9 March)

Event Time Altitude Azimuth Distance (km) Brightness Sun altitude
Rises 22:45:21 0° 243° (WSW) 3,616 10.1 10.0°
Reaches altitude 10° 22:48:07 10° 237° (WSW) 2,643 9.3 9.4°
Maximum altitude 22:54:08 47° 165° (SSE) 1,194 5.7 8.2°
Drops below altitude 10° 23:00:04 10° 93° (E) 2,606 6.7 7.0°
Sets 23:02:46 0° 88° (E) 3,560 7.3 6.4°
